, TX

(GMT )
Boomvang

Weather History for KVAF - January, 2014

Change the Weather History Date:

Friday, January 3, 2014

  Actual Average Record
Temperature  
Mean Temperature 57 °F -  
Max Temperature 59 °F - - ()
Min Temperature 55 °F - - ()
Degree Days  
Heating Degree Days 8    
Growing Degree Days 7 (Base 50)    
Moisture  
Dew Point 40 °F    
Average Humidity 53    
Maximum Humidity 59    
Minimum Humidity 44    
Precipitation  
Precipitation 0.00 in - - ()
Sea Level Pressure  
Sea Level Pressure 30.32 in    
Wind  
Wind Speed 17 mph (ENE)    
Max Wind Speed 28 mph    
Max Gust Speed 34 mph    
Visibility 10 miles    
Events      
T = Trace of Precipitation, MM = Missing Value Source: NWS Daily Summary

Daily Weather History Graph

Daily Weather History Graph

Search for Another Location

Airport or City:

Trip Planner

Search our weather history database for the weather conditions in past years. The results will help you decide how hot, cold, wet, or windy it might be!

Date:

Astronomy

Jan. 03, 2014 Rise Set
Actual Time 7:09 AM CST 5:37 PM CST
Civil Twilight 6:43 AM CST 6:02 PM CST
Nautical Twilight 6:14 AM CST 6:31 PM CST
Astronomical Twilight 5:46 AM CST 7:00 PM CST
Moon 8:50 AM CST (1/3) 8:29 PM CST (1/3)
Length of Visible Light 11h 19m
Length of Day
10h 28m
Waxing Crescent, 8% of the Moon is Illuminated
Jan 3
Waxing Crescent
Jan 7
First Quarter
Jan 15
Full
Jan 23
Last Quarter
Jan 30
New

Hourly Weather History & Observations

Time (CST) Temp. Dew Point Humidity Pressure Visibility Wind Dir Wind Speed Gust Speed Precip Events Conditions
12:15 AM 57.2 °F 39.2 °F 51% 30.34 in 10.0 mi NNE 15.0 mph 34.5 mph N/A   Clear
12:35 AM 57.2 °F 37.4 °F 48% 30.34 in 10.0 mi NNE 16.1 mph 33.4 mph N/A   Partly Cloudy
12:55 AM 57.2 °F 39.2 °F 51% 30.35 in 10.0 mi NNE 13.8 mph 26.5 mph N/A   Partly Cloudy
1:15 AM 57.2 °F 39.2 °F 51% 30.34 in 10.0 mi NE 23.0 mph 29.9 mph N/A   Partly Cloudy
1:35 AM 57.2 °F 39.2 °F 51% 30.35 in 10.0 mi NNE 12.7 mph 29.9 mph N/A   Partly Cloudy
1:55 AM 57.2 °F 39.2 °F 51% 30.35 in 10.0 mi NE 18.4 mph 26.5 mph N/A   Scattered Clouds
2:15 AM 57.2 °F 39.2 °F 51% 30.34 in 10.0 mi NE 12.7 mph 28.8 mph N/A   Scattered Clouds
2:35 AM 57.2 °F 39.2 °F 51% 30.35 in 10.0 mi NNE 12.7 mph 26.5 mph N/A   Mostly Cloudy
2:55 AM 57.2 °F 37.4 °F 48% 30.33 in 10.0 mi NE 21.9 mph 27.6 mph N/A   Scattered Clouds
3:15 AM 57.2 °F 39.2 °F 51% 30.33 in 10.0 mi NE 20.7 mph 31.1 mph N/A   Scattered Clouds
3:35 AM 57.2 °F 37.4 °F 48% 30.33 in 10.0 mi ENE 23.0 mph 31.1 mph N/A   Scattered Clouds
3:55 AM 57.2 °F 37.4 °F 48% 30.33 in 10.0 mi ENE 24.2 mph 31.1 mph N/A   Scattered Clouds
4:15 AM 57.2 °F 35.6 °F 44% 30.33 in 10.0 mi ENE 24.2 mph 32.2 mph N/A   Partly Cloudy
4:35 AM 57.2 °F 37.4 °F 48% 30.34 in 10.0 mi ENE 21.9 mph 32.2 mph N/A   Scattered Clouds
4:55 AM 57.2 °F 37.4 °F 48% 30.33 in 10.0 mi NE 23.0 mph - N/A   Mostly Cloudy
5:15 AM 57.2 °F 39.2 °F 51% 30.33 in 10.0 mi ENE 25.3 mph - N/A   Mostly Cloudy
5:35 AM 57.2 °F 39.2 °F 51% 30.34 in 10.0 mi NE 17.3 mph 27.6 mph N/A   Scattered Clouds
5:55 AM 55.4 °F 39.2 °F 54% 30.34 in 10.0 mi ENE 20.7 mph 28.8 mph N/A   Mostly Cloudy
6:15 AM 55.4 °F 39.2 °F 54% 30.35 in 10.0 mi NE 15.0 mph 26.5 mph N/A   Mostly Cloudy
6:35 AM 55.4 °F 39.2 °F 54% 30.35 in 10.0 mi ENE 20.7 mph 27.6 mph N/A   Mostly Cloudy
6:55 AM 55.4 °F 39.2 °F 54% 30.35 in 10.0 mi ENE 23.0 mph - N/A   Scattered Clouds
7:15 AM 55.4 °F 39.2 °F 54% 30.36 in 10.0 mi ENE 19.6 mph 26.5 mph N/A   Scattered Clouds
7:35 AM 55.4 °F 37.4 °F 51% 30.35 in 10.0 mi ENE 26.5 mph - N/A   Scattered Clouds
7:55 AM 55.4 °F 39.2 °F 54% 30.35 in 10.0 mi NE 18.4 mph 33.4 mph N/A   Partly Cloudy
8:15 AM 55.4 °F 39.2 °F 54% 30.36 in 10.0 mi ENE 27.6 mph 33.4 mph N/A   Partly Cloudy
8:35 AM 57.2 °F 39.2 °F 51% 30.37 in 10.0 mi ENE 24.2 mph - N/A   Partly Cloudy
8:55 AM 57.2 °F 41.0 °F 55% 30.38 in 10.0 mi ENE 23.0 mph - N/A   Scattered Clouds
9:15 AM 57.2 °F 41.0 °F 55% 30.39 in 10.0 mi ENE 24.2 mph - N/A   Partly Cloudy
9:35 AM 57.2 °F 39.2 °F 51% 30.40 in 10.0 mi ENE 20.7 mph - N/A   Partly Cloudy
9:55 AM 57.2 °F 39.2 °F 51% 30.41 in 10.0 mi ENE 19.6 mph 25.3 mph N/A   Partly Cloudy
10:15 AM 57.2 °F 41.0 °F 55% 30.40 in 10.0 mi ENE 19.6 mph - N/A   Scattered Clouds
10:35 AM 57.2 °F 41.0 °F 55% 30.40 in 10.0 mi ENE 18.4 mph 24.2 mph N/A   Scattered Clouds
10:55 AM 57.2 °F 41.0 °F 55% 30.40 in 10.0 mi ENE 19.6 mph - N/A   Scattered Clouds
11:15 AM 57.2 °F 39.2 °F 51% 30.39 in 10.0 mi ENE 19.6 mph - N/A   Scattered Clouds
11:35 AM 57.2 °F 41.0 °F 55% 30.38 in 10.0 mi ENE 16.1 mph 24.2 mph N/A   Scattered Clouds
11:55 AM 57.2 °F 39.2 °F 51% 30.37 in 10.0 mi ENE 15.0 mph 21.9 mph N/A   Scattered Clouds
12:15 PM 57.2 °F 39.2 °F 51% 30.36 in 10.0 mi ENE 15.0 mph - N/A   Scattered Clouds
12:35 PM 57.2 °F 41.0 °F 55% 30.35 in 10.0 mi ENE 15.0 mph - N/A   Partly Cloudy
12:55 PM 57.2 °F 41.0 °F 55% 30.33 in 10.0 mi ENE 15.0 mph 20.7 mph N/A   Mostly Cloudy
1:15 PM 57.2 °F 41.0 °F 55% 30.32 in 10.0 mi ENE 13.8 mph - N/A   Mostly Cloudy
1:35 PM 57.2 °F 41.0 °F 55% 30.31 in 10.0 mi East 10.4 mph 16.1 mph N/A   Scattered Clouds
1:55 PM 57.2 °F 41.0 °F 55% 30.31 in 10.0 mi ENE 15.0 mph - N/A   Mostly Cloudy
2:15 PM 57.2 °F 42.8 °F 59% 30.30 in 10.0 mi ENE 15.0 mph - N/A   Mostly Cloudy
2:35 PM 57.2 °F 39.2 °F 51% 30.30 in 10.0 mi East 16.1 mph - N/A   Scattered Clouds
2:55 PM 59.0 °F 39.2 °F 48% 30.29 in 10.0 mi ENE 13.8 mph - N/A   Partly Cloudy
3:15 PM 57.2 °F 41.0 °F 55% 30.29 in 10.0 mi ENE 15.0 mph - N/A   Scattered Clouds
3:35 PM 57.2 °F 41.0 °F 55% 30.28 in 10.0 mi East 13.8 mph - N/A   Mostly Cloudy
3:55 PM 57.2 °F 41.0 °F 55% 30.28 in 10.0 mi East 17.3 mph - N/A   Mostly Cloudy
4:15 PM 57.2 °F 41.0 °F 55% 30.28 in 10.0 mi ENE 13.8 mph - N/A   Mostly Cloudy
4:35 PM 57.2 °F 41.0 °F 55% 30.27 in 10.0 mi East 15.0 mph - N/A   Mostly Cloudy
4:55 PM 57.2 °F 41.0 °F 55% 30.28 in 10.0 mi East 11.5 mph 17.3 mph N/A   Mostly Cloudy
5:15 PM 57.2 °F 41.0 °F 55% 30.27 in 10.0 mi East 12.7 mph 19.6 mph N/A   Overcast
5:35 PM 55.4 °F 41.0 °F 58% 30.27 in 10.0 mi ENE 11.5 mph 18.4 mph N/A   Mostly Cloudy
5:55 PM 55.4 °F 41.0 °F 58% 30.27 in 10.0 mi East 11.5 mph - N/A   Mostly Cloudy
6:15 PM 55.4 °F 39.2 °F 54% 30.27 in 10.0 mi East 12.7 mph - N/A   Mostly Cloudy
6:35 PM 55.4 °F 39.2 °F 54% 30.27 in 10.0 mi East 10.4 mph - N/A   Scattered Clouds
6:55 PM 55.4 °F 41.0 °F 58% 30.27 in 10.0 mi ENE 11.5 mph - N/A   Mostly Cloudy
7:15 PM 55.4 °F 39.2 °F 54% 30.27 in 10.0 mi East 10.4 mph - N/A   Mostly Cloudy
7:35 PM 55.4 °F 39.2 °F 54% 30.27 in 10.0 mi East 11.5 mph - N/A   Partly Cloudy
7:55 PM 57.2 °F 41.0 °F 55% 30.27 in 10.0 mi ESE 10.4 mph - N/A   Mostly Cloudy
8:15 PM 55.4 °F 39.2 °F 54% 30.27 in 10.0 mi East 10.4 mph 16.1 mph N/A   Mostly Cloudy
8:35 PM 57.2 °F 41.0 °F 55% 30.27 in 10.0 mi ESE 12.7 mph - N/A   Scattered Clouds
8:55 PM 57.2 °F 42.8 °F 59% 30.27 in 10.0 mi ESE 9.2 mph 16.1 mph N/A   Mostly Cloudy
9:15 PM 57.2 °F 41.0 °F 55% 30.27 in 10.0 mi SE 12.7 mph - N/A   Overcast
9:35 PM 57.2 °F 41.0 °F 55% 30.26 in 10.0 mi ESE 9.2 mph - N/A   Overcast
9:55 PM 57.2 °F 41.0 °F 55% 30.25 in 10.0 mi SE 9.2 mph 17.3 mph N/A   Overcast
10:15 PM 57.2 °F 41.0 °F 55% 30.25 in 10.0 mi ESE 9.2 mph - N/A   Overcast
10:35 PM 57.2 °F 41.0 °F 55% 30.25 in 10.0 mi ESE 8.1 mph - N/A   Mostly Cloudy
10:55 PM 57.2 °F 42.8 °F 59% 30.24 in 10.0 mi SE 6.9 mph - N/A   Overcast
11:15 PM 57.2 °F 41.0 °F 55% 30.23 in 10.0 mi South 11.5 mph - N/A   Mostly Cloudy
11:35 PM 57.2 °F 41.0 °F 55% 30.22 in 10.0 mi SE 10.4 mph - N/A   Mostly Cloudy
11:55 PM 57.2 °F 41.0 °F 55% 30.21 in 10.0 mi SSE 12.7 mph - N/A   Mostly Cloudy